Theta_e
304 304 305 306 305 305 304 304 304 305 306 304 307 307 307 307 306 306 305 307 308 308 309 311 312 314 314 315 343 352 350 351 350 349 348 347 346 344 346 344 342 340 339 339
304 306 306 306 306 307 306 306 306 306 306 309 308 309 308 308 306 306 306 308 307 306 309 310 311 312 313 314 341 350 350 350 350 349 348 347 346 345 345 345 343 341 340 340
306 307 307 308 308 309 308 308 307 308 310 308 307 308 308 308 305 306 306 305 306 308 309 310 311 313 315 314 341 347 349 348 350 349 347 346 345 344 345 344 344 343 342 341
306 306 308 307 309 308 309 308 309 310 310 311 308 313 309 308 309 310 312 314 317 316 317 316 316 316 315 315 323 344 346 346 349 348 346 343 342 341 341 340 341 342 343 342
308 308 308 309 309 309 309 309 310 310 309 309 309 307 306 314 319 318 317 318 316 317 317 317 317 317 318 316 312 340 343 344 347 347 345 343 342 341 339 340 340 341 342 342
308 307 308 308 309 309 309 308 309 305 306 305 308 311 311 320 318 317 314 314 312 311 312 314 315 317 319 319 318 335 341 341 344 345 343 342 341 340 338 338 338 339 340 341
308 310 307 309 310 308 307 308 306 308 308 309 308 313 310 319 318 315 312 311 311 310 308 310 312 315 318 320 322 316 340 339 342 342 341 340 339 339 338 336 337 338 339 339
312 313 310 309 311 311 309 312 309 311 311 313 313 315 313 317 314 311 310 309 309 309 307 307 308 311 316 317 318 321 335 339 340 341 340 339 339 337 337 337 336 337 339 338
313 314 310 311 310 311 312 315 314 320 316 318 312 312 316 315 312 309 308 307 307 307 307 306 308 310 315 314 315 317 322 336 338 340 341 340 339 339 337 337 337 338 338 338
312 316 312 312 311 313 313 313 316 311 318 318 314 313 314 316 311 308 308 306 305 305 306 305 305 307 309 310 312 313 315 320 326 340 340 342 340 340 340 339 338 338 339 339
310 314 312 310 311 310 310 314 316 318 316 319 317 315 315 312 309 308 307 306 305 304 305 304 303 304 306 306 307 310 311 313 316 321 337 342 342 343 341 342 342 341 341 340
310 311 316 312 310 309 311 313 314 319 315 319 319 317 313 310 309 308 306 305 304 303 304 304 302 302 303 304 305 307 309 310 311 314 322 338 346 343 343 343 343 344 344 344
311 309 316 308 308 311 314 313 314 316 315 316 319 319 312 311 309 307 306 305 305 303 304 303 303 302 302 302 303 304 308 308 309 311 316 327 346 347 343 344 346 345 344 345
313 311 311 310 313 313 315 314 313 316 315 315 315 313 312 312 309 307 306 305 304 304 303 303 302 302 302 301 302 303 305 307 308 309 311 317 327 342 347 346 345 346 347 346
310 311 308 310 312 312 313 313 314 318 316 315 312 313 312 311 309 307 306 306 305 304 303 303 302 302 302 301 302 302 303 305 306 307 309 314 320 327 339 348 348 346 347 347
309 314 314 317 314 314 313 312 314 314 311 311 311 312 309 308 306 306 305 305 305 305 303 303 303 302 301 301 301 302 303 304 305 306 308 311 317 323 330 339 346 348 346 347
312 315 318 318 312 309 312 315 313 311 310 311 312 310 309 308 306 306 306 305 305 304 303 303 303 302 301 301 301 302 303 304 304 305 307 310 313 321 326 335 340 344 344 345
312 316 316 319 309 307 309 310 311 312 311 310 311 309 308 306 305 305 305 305 304 304 303 302 302 302 301 302 302 302 303 304 304 305 306 309 312 317 324 336 337 336 338 339
307 314 318 309 312 310 308 313 309 311 310 308 308 308 307 304 304 305 304 302 304 303 302 302 302 302 303 303 303 303 303 303 304 306 307 309 313 316 321 333 335 336 335 337
312 313 316 311 314 311 302 310 307 307 309 307 306 307 306 304 306 305 304 303 304 302 301 302 302 303 303 303 303 304 304 305 305 307 309 311 313 316 319 326 332 334 335 335
315 314 316 314 312 313 306 308 305 305 306 305 305 307 305 304 304 304 304 303 303 302 301 301 302 301 302 302 304 305 306 307 308 309 312 313 317 319 321 323 332 333 334 334
310 312 309 311 311 310 306 306 306 305 302 305 306 306 305 304 304 304 302 302 302 302 301 300 301 301 302 303 303 305 306 309 311 314 316 319 321 322 324 325 326 334 330 331
309 308 306 304 305 302 303 305 304 302 302 305 306 305 304 304 304 302 300 301 301 301 300 300 300 301 302 303 303 304 304 307 312 317 320 322 323 324 324 325 328 332 331 329
308 307 309 310 308 305 304 304 305 302 303 305 305 305 304 304 302 298 298 300 301 300 300 299 299 301 302 302 303 303 303 307 311 313 316 319 320 319 321 325 329 330 330 327
304 307 308 306 305 305 304 303 303 302 302 304 305 304 304 300 298 296 296 298 299 300 299 299 299 300 301 302 302 301 302 305 308 309 311 312 313 314 313 313 316 320 323 323
302 305 307 306 304 306 304 303 302 302 302 303 304 302 300 299 297 295 295 296 299 298 298 298 298 299 300 302 301 300 301 302 304 306 307 308 310 310 309 308 309 312 317 319
Wind_Speed
3 4 1 5 5 7 6 5 10 13 8 5 14 19 16 16 15 18 13 12 10 11 15 22 30 29 34 26 27 33 33 37 39 38 36 32 30 27 27 33 37 41 39 37
5 1 4 6 6 3 4 6 7 9 5 9 12 23 19 18 14 18 17 11 13 8 13 15 21 27 29 26 28 36 38 40 44 39 40 31 32 28 28 33 39 41 40 39
4 2 2 2 2 5 3 6 5 9 17 5 6 15 6 16 8 14 16 12 10 8 11 10 11 20 27 19 25 35 40 42 43 41 34 29 30 26 29 34 39 44 42 41
3 3 4 5 1 4 4 2 7 15 7 6 6 12 2 9 14 11 14 12 12 10 11 10 14 13 22 25 17 28 38 40 41 39 38 38 36 26 33 30 32 36 43 42
5 4 5 3 2 3 8 9 12 13 7 4 1 1 6 7 12 17 16 18 18 17 14 15 15 20 23 23 20 26 31 34 37 40 41 39 32 30 26 27 33 39 41 41
5 4 1 2 4 3 9 5 10 2 2 2 4 1 3 4 4 12 17 17 18 21 20 17 21 23 25 29 33 17 28 31 34 37 36 39 37 32 27 28 29 31 33 37
7 5 4 2 5 6 10 7 5 6 4 4 3 5 7 3 4 10 16 17 17 17 18 19 21 19 27 32 32 22 24 28 32 34 36 35 33 34 37 36 33 30 30 33
3 7 4 4 1 3 3 3 3 4 3 8 10 5 5 5 7 10 12 12 15 16 15 18 20 19 24 30 33 34 11 21 29 34 36 36 35 34 35 35 32 33 35 40
2 5 1 7 2 1 2 1 3 5 5 5 4 6 2 6 12 16 14 16 17 16 15 18 19 23 25 30 32 33 28 10 19 27 32 37 36 35 33 34 38 36 34 33
3 6 1 3 2 2 0 1 2 2 5 5 5 5 4 10 15 17 22 21 20 20 21 17 17 24 30 29 31 33 32 26 18 13 21 26 32 36 36 38 38 37 37 34
5 4 5 4 3 3 2 1 1 3 3 3 4 5 3 5 10 13 17 19 17 19 15 17 17 25 24 29 29 31 32 30 28 24 7 21 27 28 30 35 37 39 36 36
6 4 4 9 7 6 5 4 3 3 2 4 4 6 5 5 7 15 18 17 17 15 16 14 17 22 25 25 28 28 30 30 29 29 23 14 23 28 29 33 36 35 36 34
5 1 4 8 5 2 0 4 5 5 4 8 5 4 2 9 14 13 16 18 17 17 18 16 15 14 19 25 25 25 26 28 30 33 27 19 19 26 32 32 35 36 36 35
8 3 7 6 7 8 10 9 10 7 4 5 9 21 13 14 13 16 16 17 15 17 21 18 18 15 20 20 22 23 24 25 28 30 28 22 11 9 27 34 36 36 35 34
7 5 6 10 16 17 17 16 14 11 6 5 9 20 18 9 13 16 16 16 17 20 22 19 18 17 19 23 23 22 21 24 25 27 28 26 17 7 9 24 30 30 34 35
2 4 4 7 14 11 14 13 12 7 5 11 15 20 6 12 13 15 17 17 17 18 23 20 20 19 18 19 20 23 24 25 26 25 25 28 21 13 7 9 23 28 29 30
6 2 2 6 4 9 5 7 8 4 6 7 10 9 9 11 15 15 16 17 17 19 22 20 19 17 20 22 22 21 21 23 26 23 27 24 23 15 9 4 14 22 26 28
5 3 2 5 6 3 3 2 3 8 11 12 11 8 10 13 13 16 15 13 18 17 20 18 15 23 26 24 24 24 23 20 22 25 25 25 21 14 12 4 13 18 20 24
5 4 3 2 2 8 3 4 4 4 9 4 3 7 10 11 15 9 8 16 20 13 17 19 25 28 28 26 24 22 21 19 19 22 25 22 15 15 13 8 14 20 22 21
5 2 3 2 2 4 6 3 3 1 6 6 3 8 8 11 6 9 16 17 17 20 25 24 30 27 26 25 23 19 18 18 18 21 25 23 18 15 17 13 15 15 22 21
4 3 7 3 4 7 6 5 4 3 5 3 6 6 6 5 6 15 15 17 20 22 26 29 25 22 25 27 23 18 17 18 21 22 25 24 19 19 20 20 14 11 17 25
7 7 5 3 4 8 6 4 5 4 2 3 5 5 7 10 12 12 14 16 16 18 25 27 25 24 23 22 21 16 14 17 17 19 20 18 18 17 17 15 16 19 19 21
3 7 5 9 6 5 7 7 4 4 5 3 4 7 7 10 9 11 12 14 14 19 23 25 24 25 24 24 20 16 18 17 9 7 14 16 13 14 13 16 20 20 23 22
4 4 4 1 3 5 8 6 6 6 5 4 5 7 7 8 8 8 10 12 13 18 21 25 25 23 24 26 24 22 22 16 8 5 4 8 8 3 3 7 13 17 20 20
5 5 5 5 7 5 7 8 5 5 5 5 6 6 6 4 6 6 9 10 13 18 21 23 23 23 26 27 24 24 24 18 14 11 7 9 10 8 7 7 3 8 14 20
5 7 5 6 7 4 5 2 5 6 5 5 4 7 5 2 5 5 7 11 15 17 21 22 24 24 28 26 27 28 26 21 17 13 12 10 9 9 8 9 12 8 7 15
Wind_Direction
1 55 90 263 229 231 265 260 258 285 278 320 300 286 286 280 279 286 271 271 271 267 281 289 291 299 312 282 216 199 193 190 183 186 188 194 201 204 208 213 215 213 210 212
5 188 195 286 293 293 288 287 278 282 295 302 293 289 283 294 277 272 271 268 277 299 299 299 297 310 314 282 211 193 191 190 189 189 190 195 199 204 208 211 216 217 215 214
203 214 279 1 70 25 284 262 293 289 316 231 291 286 341 312 278 285 293 278 296 300 301 315 312 314 318 319 218 190 190 192 191 192 183 187 195 199 205 213 218 217 217 217
222 282 0 336 96 39 309 280 307 306 332 302 69 292 357 343 354 354 353 351 343 323 331 328 319 321 321 326 271 208 192 192 194 185 181 188 184 189 211 206 206 215 218 218
267 306 342 341 342 338 250 305 274 283 271 335 272 256 275 6 359 347 348 350 348 344 336 330 328 323 326 339 329 224 203 197 191 188 188 188 192 202 205 201 205 210 217 218
258 305 220 252 328 289 296 336 320 59 103 20 238 134 273 5 329 344 345 343 344 341 338 333 334 339 350 3 355 251 204 201 196 191 192 192 195 194 193 191 194 200 206 211
326 329 326 68 335 344 16 17 342 353 360 234 221 316 247 211 39 29 339 333 337 334 336 338 338 345 353 4 360 336 214 201 196 195 196 198 198 198 198 192 191 190 195 206
21 325 5 357 103 282 336 100 145 286 283 292 282 234 263 134 56 7 351 330 332 333 334 341 337 334 350 360 4 358 287 212 198 197 199 198 198 199 203 201 196 197 197 207
344 262 239 316 321 187 311 97 147 272 269 273 251 287 287 33 3 359 345 341 342 332 338 348 339 340 353 359 1 1 8 328 224 213 205 200 199 201 202 206 211 208 207 210
225 287 253 288 5 47 242 204 16 325 294 283 270 274 249 1 350 345 347 343 339 337 341 350 344 345 354 353 354 357 3 8 8 241 227 218 210 205 202 206 206 209 215 217
165 183 286 352 184 188 335 167 230 258 223 284 302 259 91 28 358 342 337 331 335 332 335 341 344 345 344 349 350 350 353 357 357 4 288 233 222 216 209 205 205 213 216 217
209 176 270 257 284 236 193 190 170 256 274 254 267 278 109 68 356 353 336 327 327 330 331 336 340 341 343 341 341 345 343 344 347 346 351 252 228 219 217 211 211 212 217 218
178 265 299 333 358 19 207 228 248 241 256 252 279 271 125 12 349 348 332 324 323 327 336 337 335 336 334 338 331 333 334 335 337 340 346 353 219 216 216 216 216 216 214 219
172 191 201 218 251 283 278 250 265 255 242 294 258 289 317 338 338 333 324 323 320 327 334 330 330 326 330 319 328 322 325 325 328 329 332 327 359 217 215 218 221 218 215 213
147 221 202 247 258 271 269 270 258 247 243 254 299 294 308 331 331 315 315 315 317 324 329 326 329 322 323 320 315 310 316 313 322 317 320 314 326 349 216 218 224 216 214 212
179 262 218 267 271 272 274 264 262 224 251 269 291 292 357 334 316 317 318 317 316 326 324 323 323 317 317 312 307 308 306 310 304 304 309 308 315 319 1 229 220 220 214 213
165 209 275 278 338 312 288 216 170 212 237 283 289 294 332 318 323 318 314 312 311 323 326 325 318 316 312 304 299 293 288 289 293 303 294 298 303 306 325 285 212 210 205 204
168 160 216 285 353 330 249 102 204 229 267 270 268 298 312 314 306 308 304 327 317 316 325 320 313 310 305 295 288 286 281 281 282 283 284 287 289 302 303 245 205 206 197 193
180 138 265 263 244 289 289 205 199 254 297 236 252 301 297 311 308 291 351 326 318 329 320 314 314 307 303 299 292 284 279 272 269 271 269 275 287 288 284 247 212 200 192 189
140 130 203 158 269 265 236 186 125 219 274 181 301 285 310 321 314 316 325 324 320 328 320 317 318 318 313 309 301 283 273 268 263 264 271 280 281 277 271 257 218 204 194 188
159 164 228 197 241 273 224 152 134 84 255 193 273 288 295 298 271 300 317 318 322 323 324 325 324 323 317 317 312 291 274 262 258 264 273 275 274 269 265 257 242 211 206 185
174 171 199 172 216 257 147 120 165 213 216 225 274 286 283 289 301 313 318 321 330 328 333 333 329 329 328 324 320 307 295 288 272 263 256 258 263 270 271 267 254 226 204 188
228 192 179 180 215 222 194 203 176 174 223 257 260 280 289 295 313 321 321 324 328 328 329 334 331 333 338 342 340 330 319 309 322 267 249 248 243 242 246 250 224 202 196 190
247 175 205 116 230 214 219 233 220 207 218 247 259 276 289 304 320 320 319 325 324 332 334 339 340 342 343 349 349 347 342 353 3 5 64 125 143 167 201 194 208 200 196 179
207 144 196 260 282 281 249 226 202 209 216 251 258 268 293 310 306 308 316 323 324 332 336 343 343 343 346 348 355 358 360 9 23 33 45 100 108 109 101 90 130 183 181 184
185 195 181 227 221 190 249 206 173 193 213 238 263 287 286 297 313 308 316 320 328 335 336 348 347 348 348 350 1 3 6 19 32 28 26 53 101 122 131 122 88 87 192 194